Location: ???? ???? ?????
(31.2680°N, 31.7283°E)
Time: 04:02:42
(UTC+00:00)

Resurs 1-4 Rocket - Pass Details

Date: 13 July 2020
Orbit: 800 x 814 km, 98.6° (Epoch: 11 August)

Event Time Altitude Azimuth Distance (km) Brightness Sun altitude
Rises 23:44:59 0° 6° (N) 3,336 6.3 -31.3°
Reaches altitude 10° 23:47:22 10° 2° (N) 2,400 5.3 -31.1°
Enters shadow 23:51:17 44° 331° (NNW) 1,114 2.9 -30.6°
